This is the latest recevied weather packets stored in our database for station/object KGRR-WX. If no packets are shown the sender has not sent any weather packets the latest 10 day(s).
| Time | Temp. | Humidity | Pressure | Rain* | Wind** | Luminosity | Snow |
|---|---|---|---|---|---|---|---|
| 1777416304 | 13.33° C | 57% | 984.9 hPa | 0 mm | - | - | - |
| 1777415413 | 13.33° C | 60% | 984.3 hPa | 0 mm | - | - | - |
| 1777414504 | 13.33° C | 60% | 984.3 hPa | 0 mm | - | - | - |
| 1777413623 | 13.33° C | 60% | 984.3 hPa | 0 mm | - | - | - |
| 1777412704 | 13.33° C | 59% | 984.2 hPa | 0 mm | - | - | - |
| 1777411814 | 13.33° C | 59% | 984.2 hPa | 0 mm | - | - | - |
| 1777410904 | 13.33° C | 59% | 984.2 hPa | 0 mm | - | - | - |
| 1777410024 | 13.33° C | 59% | 984.2 hPa | 0 mm | - | - | - |
| 1777409104 | 13.33° C | 72% | 983.9 hPa | 0 mm | - | - | - |
| 1777408220 | 13.33° C | 78% | 983.7 hPa | 0 mm | - | - | - |
| 1777407304 | 12.78° C | 78% | 983.7 hPa | 0 mm | - | - | - |
| 1777406423 | 12.78° C | 75% | 983.7 hPa | 0 mm | - | - | - |
| 1777405504 | 12.78° C | 76% | 982.9 hPa | 0 mm | - | - | - |
| 1777404614 | 12.78° C | 76% | 982.9 hPa | 0 mm | - | - | - |
| 1777403706 | 12.22° C | 76% | 982.9 hPa | 0 mm | - | - | - |
| 1777402822 | 12.22° C | 76% | 982.9 hPa | 0 mm | - | - | - |
| 1777401904 | 12.78° C | 80% | 983.1 hPa | 0 mm | - | - | - |
| 1777401014 | 11.67° C | 80% | 983.1 hPa | 0 mm | - | - | - |
| 1777400104 | 11.11° C | 80% | 983.1 hPa | 0 mm | - | - | - |
| 1777399224 | 11.11° C | 80% | 983.1 hPa | 0 mm | - | - | - |
| 1777398304 | 11.11° C | 80% | 982.7 hPa | 0 mm | - | - | - |
| 1777397420 | 10.56° C | 82% | 982.9 hPa | 0 mm | - | - | - |
| 1777396504 | 10.56° C | 82% | 982.9 hPa | 0 mm | - | - | - |
| 1777395618 | 11.11° C | 82% | 982.9 hPa | 0 mm | - | - | - |
| 1777394704 | 11.11° C | 82% | 982.3 hPa | 0 mm | - | - | - |
* Rain latest hour (hover to see other rain measurements)
** Current wind speed in m/s (hover to see current wind gust speed)